Location: Carabito
(9.8355°N, 67.9249°W)
Time: 22:52:19
(UTC+00:00)

Ariane H10 - Pass Details

Date: 23 May 2024
Orbit: 373 x 30241 km, 7.2° (Epoch: 24 June)

Event Time Altitude Azimuth Distance (km) Brightness Sun altitude
Exits shadow 09:33:15 10° 224° (SW) 1,750 4.3 -9.2°
Reaches altitude 10° 09:33:18 10° 223° (SW) 1,734 4.3 -9.2°
Maximum altitude 09:34:29 11° 201° (SSW) 1,455 4.1 -8.9°
Drops below altitude 10° 09:35:29 10° 177° (S) 1,423 4.2 -8.7°
Sets 09:38:17 0° 134° (SE) 2,252 5.8 -8.0°
